Wind_Speed
48 48 49 49 49 49 49 50 50 50 49 49 49 48 49 49 50 49 49 48 48 48 48 48 47 47 47 46 45 44 45 46 46 46 47 46 45 44
48 49 49 49 49 50 49 49 49 49 48 48 49 49 49 50 50 50 50 49 48 49 48 48 48 48 47 46 46 46 46 46 46 47 46 45 45 44
49 49 49 50 50 50 49 49 49 48 48 47 48 49 49 49 49 49 50 51 51 51 50 49 48 48 47 47 47 47 47 47 47 47 46 45 45 45
50 50 50 49 49 49 49 49 48 48 48 48 48 48 48 49 49 50 51 51 51 51 50 49 48 48 49 48 48 48 48 48 47 46 46 47 45 44
47 47 47 47 47 48 48 48 48 48 48 49 49 48 48 49 50 50 50 50 49 50 50 49 49 49 49 50 49 49 49 48 47 47 47 46 45 44
45 45 45 46 46 47 47 49 48 48 49 48 48 48 48 48 48 49 49 49 49 49 49 49 49 48 49 50 49 49 48 48 48 47 46 46 44 44
44 45 46 46 46 46 47 47 47 47 48 48 47 47 48 48 48 48 48 48 48 48 47 48 48 48 49 49 49 48 47 48 47 46 45 44 44 44
45 46 47 47 47 47 47 47 47 47 48 47 47 48 48 48 48 49 49 49 47 47 47 47 47 48 48 48 48 47 47 47 46 44 44 43 44 44
45 45 45 46 46 47 47 47 47 48 48 48 47 48 48 48 48 47 48 48 47 47 47 45 46 46 46 46 46 47 46 45 45 44 44 44 44 43
44 45 45 45 45 46 47 47 47 47 47 47 48 48 47 47 48 47 46 46 46 46 46 45 45 46 46 45 45 45 45 44 44 44 43 42 42 43
45 45 45 45 44 45 46 46 46 46 45 46 46 45 45 46 46 46 46 45 44 45 45 44 44 44 44 44 44 44 44 43 41 41 41 41 41 41
45 45 45 44 44 45 45 45 44 44 44 44 44 44 44 45 45 46 45 45 45 45 45 45 45 43 41 41 41 42 42 41 41 40 39 39 39 39
43 43 43 43 44 45 45 44 43 43 44 44 43 44 44 45 46 46 45 45 45 45 44 44 42 41 40 39 38 39 39 39 39 38 38 38 38 37
40 40 41 42 43 43 44 44 44 43 43 44 44 44 45 45 45 45 45 44 44 44 42 41 39 39 38 38 38 37 37 37 36 35 36 35 35 34
39 40 41 42 43 43 43 42 42 43 43 44 44 44 44 43 43 43 43 43 43 41 39 37 37 37 38 37 36 36 35 34 34 34 34 33 33 33
40 40 41 41 42 41 41 41 42 43 43 44 44 43 42 41 40 40 41 40 40 39 37 36 36 36 36 35 34 33 33 33 33 33 32 32 32 31
40 40 40 41 41 41 40 40 41 41 41 41 40 40 39 39 39 39 39 38 37 36 36 36 35 34 33 33 33 33 32 33 32 31 30 30 29 29
39 39 39 40 40 39 39 39 39 39 39 39 39 38 38 37 37 37 37 36 35 34 33 33 32 31 31 32 32 31 31 30 30 29 28 27 27 27
39 38 38 38 37 37 37 38 38 38 38 38 37 37 37 37 36 35 34 33 32 31 30 30 30 29 29 29 30 29 28 28 28 27 26 26 26 25
37 36 36 36 36 37 37 37 37 37 37 37 36 36 36 35 34 32 31 31 30 30 29 29 28 28 27 27 26 27 27 27 26 26 26 25 24 24
34 34 34 35 35 36 36 36 36 36 36 35 35 35 33 32 30 29 29 29 29 28 28 27 27 26 25 24 24 24 24 24 24 24 23 23 22 22
33 34 34 34 34 35 35 35 35 35 34 34 33 32 30 29 28 28 27 27 27 26 26 26 25 24 24 23 22 22 22 22 22 22 21 20 20 19
34 34 34 34 34 35 35 35 34 34 33 33 31 30 28 28 27 26 26 26 26 25 24 23 22 22 22 22 21 21 20 20 19 19 19 18 17 17
Wind_Direction
271 272 274 277 278 279 279 280 282 282 282 282 281 281 281 281 282 283 283 282 282 283 284 284 284 284 283 284 285 286 286 287 288 289 290 290 289 289
270 272 273 276 277 278 279 280 281 282 283 282 282 281 282 282 283 283 283 284 283 283 283 284 283 283 282 282 282 283 284 286 288 288 289 289 288 289
270 272 273 275 277 278 279 281 281 282 282 283 282 282 282 283 283 284 284 284 283 283 283 283 282 282 281 281 281 282 283 285 287 287 287 287 288 288
272 272 273 275 276 277 279 280 282 283 283 283 282 282 283 282 283 284 284 283 283 283 282 282 281 281 281 281 281 282 283 284 285 286 287 288 288 288
273 273 273 274 276 278 280 280 281 283 284 285 284 283 282 283 283 284 285 284 283 282 282 281 280 280 281 281 281 282 283 283 284 285 286 287 287 286
273 273 274 275 276 278 279 280 280 282 283 284 283 283 283 284 285 285 284 283 283 283 282 281 280 281 282 282 282 282 284 285 285 284 285 286 286 286
272 272 273 274 275 277 278 279 280 281 283 284 284 284 284 285 285 285 285 284 284 283 282 281 280 281 282 282 282 282 283 285 285 284 285 286 286 287
272 272 273 274 275 277 279 280 281 282 284 284 284 285 286 286 286 286 285 286 284 283 282 281 281 281 282 282 282 282 282 284 284 285 285 286 287 288
272 272 273 275 276 276 279 281 282 284 285 284 284 286 287 287 287 287 286 286 284 283 283 282 281 281 282 282 282 283 284 284 284 284 286 286 287 287
273 273 273 275 276 278 279 281 283 284 284 284 286 287 287 286 287 287 287 286 285 284 283 282 282 282 282 281 283 284 285 285 285 285 286 286 287 288
274 274 274 275 277 279 280 281 283 284 284 285 286 287 287 287 287 286 286 285 285 284 283 283 282 282 281 280 282 283 284 284 285 286 287 287 288 288
274 273 275 276 277 279 281 282 283 282 283 285 286 287 287 288 288 288 287 286 285 284 283 283 282 281 281 281 282 284 285 285 285 286 288 290 290 290
275 276 276 277 278 280 281 281 282 282 283 284 285 286 286 287 287 287 286 285 285 284 284 283 282 281 281 281 282 284 286 287 286 287 289 289 290 291
277 277 277 278 279 280 281 282 283 283 284 284 285 285 286 286 285 285 285 284 284 284 283 283 281 280 281 282 282 284 286 288 288 289 290 291 291 291
277 278 279 279 280 282 281 281 283 283 284 285 284 285 286 286 284 284 284 284 283 284 284 282 281 280 281 282 283 284 285 287 289 290 291 291 291 292
277 278 278 279 280 280 280 281 283 285 284 284 285 285 285 285 285 285 284 283 284 284 282 281 282 281 281 281 282 283 284 287 289 291 291 291 292 293
279 278 278 278 278 279 280 281 284 285 285 285 285 285 284 284 284 284 285 284 283 282 281 281 282 281 281 281 282 283 285 287 289 291 291 292 293 293
277 277 278 278 277 278 280 282 283 284 284 284 284 285 285 284 284 284 284 283 283 282 281 280 280 279 280 283 284 284 285 286 288 291 291 292 293 292
277 278 278 278 278 278 280 281 282 283 283 284 284 284 285 285 284 284 283 283 282 281 280 280 280 281 281 282 283 283 284 285 287 289 290 291 291 291
277 277 277 278 278 279 280 282 282 283 284 285 285 285 285 285 284 282 281 281 281 281 282 281 282 282 282 282 281 282 282 283 286 288 289 290 292 292
277 277 278 279 280 281 282 282 283 284 284 285 286 286 285 284 283 281 281 281 282 281 281 281 281 282 283 282 282 282 282 283 285 288 288 289 292 294
278 278 279 281 282 283 283 283 283 283 284 285 286 285 283 282 281 280 280 281 281 281 280 280 280 282 282 281 281 281 281 282 285 287 289 290 292 294
279 280 281 283 285 286 286 285 284 283 284 284 283 282 280 280 280 280 279 279 279 279 278 278 279 280 279 280 282 282 281 281 283 285 287 289 293 296
Height
5717 5716 5716 5715 5714 5713 5712 5710 5709 5708 5708 5705 5702 5699 5695 5693 5690 5688 5685 5683 5681 5678 5676 5673 5671 5668 5665 5663 5661 5658 5655 5652 5649 5645 5642 5638 5635 5632
5704 5704 5704 5703 5702 5701 5699 5697 5696 5694 5693 5692 5689 5686 5683 5681 5678 5675 5672 5670 5667 5664 5662 5660 5657 5655 5652 5650 5648 5646 5643 5640 5636 5633 5630 5626 5623 5619
5691 5691 5691 5690 5690 5689 5687 5685 5684 5681 5680 5679 5676 5673 5670 5668 5665 5662 5659 5656 5654 5651 5648 5646 5643 5641 5639 5637 5635 5633 5630 5627 5624 5620 5617 5614 5611 5608
5679 5679 5678 5678 5677 5676 5675 5673 5671 5669 5667 5666 5664 5661 5658 5655 5652 5649 5646 5643 5640 5637 5634 5632 5630 5628 5625 5623 5621 5619 5617 5614 5611 5608 5605 5602 5598 5595
5666 5666 5666 5665 5665 5664 5662 5660 5659 5657 5655 5653 5651 5647 5645 5642 5639 5636 5632 5629 5625 5622 5620 5618 5616 5614 5611 5609 5607 5605 5603 5601 5598 5595 5592 5589 5586 5583
5653 5653 5653 5652 5652 5651 5650 5648 5646 5644 5642 5640 5637 5635 5632 5629 5625 5622 5619 5615 5612 5609 5606 5604 5602 5600 5597 5596 5594 5592 5589 5587 5584 5582 5579 5576 5573 5570
5640 5640 5640 5639 5639 5638 5637 5635 5633 5631 5629 5627 5624 5621 5619 5615 5612 5609 5605 5602 5599 5596 5593 5591 5589 5587 5584 5582 5579 5577 5575 5573 5571 5568 5566 5563 5561 5558
5628 5628 5627 5627 5626 5625 5624 5622 5620 5618 5616 5613 5611 5608 5605 5602 5598 5595 5592 5589 5587 5584 5581 5579 5576 5574 5571 5569 5566 5564 5562 5559 5557 5555 5553 5551 5548 5545
5615 5615 5615 5614 5613 5612 5610 5608 5606 5604 5602 5600 5597 5594 5592 5589 5586 5583 5579 5575 5572 5569 5567 5566 5563 5560 5558 5555 5553 5551 5548 5546 5544 5542 5540 5538 5535 5532
5603 5603 5602 5601 5600 5599 5598 5596 5593 5591 5589 5587 5585 5581 5578 5575 5572 5569 5565 5563 5560 5555 5553 5553 5550 5548 5545 5542 5540 5538 5536 5533 5531 5529 5527 5525 5523 5520
5591 5590 5589 5589 5588 5586 5585 5584 5581 5579 5575 5573 5571 5568 5565 5562 5559 5556 5553 5551 5548 5545 5541 5540 5538 5536 5533 5530 5528 5525 5523 5521 5519 5517 5515 5512 5510 5508
5578 5577 5577 5576 5575 5574 5572 5571 5569 5567 5564 5561 5558 5555 5552 5549 5546 5543 5540 5538 5535 5533 5530 5527 5525 5523 5522 5520 5517 5514 5512 5510 5507 5505 5503 5500 5498 5496
5566 5566 5565 5564 5563 5561 5559 5558 5557 5554 5552 5549 5546 5543 5540 5537 5534 5530 5527 5525 5522 5520 5517 5515 5513 5510 5509 5509 5507 5503 5501 5499 5496 5494 5491 5489 5486 5484
5555 5554 5553 5552 5550 5549 5547 5546 5544 5542 5539 5537 5534 5531 5528 5525 5522 5518 5515 5512 5509 5507 5504 5503 5501 5500 5498 5497 5496 5494 5491 5488 5486 5483 5481 5478 5476 5474
5543 5542 5541 5540 5538 5536 5535 5533 5531 5529 5527 5524 5521 5519 5516 5513 5509 5506 5503 5500 5498 5495 5493 5491 5490 5489 5487 5486 5485 5484 5482 5479 5476 5474 5472 5469 5467 5465
5532 5531 5529 5527 5526 5525 5523 5521 5518 5516 5514 5512 5509 5506 5503 5500 5498 5495 5492 5490 5488 5485 5482 5481 5480 5478 5477 5476 5475 5474 5472 5470 5468 5465 5463 5460 5458 5455
5520 5518 5517 5515 5514 5512 5510 5509 5506 5504 5502 5499 5497 5494 5492 5489 5487 5484 5482 5480 5478 5476 5474 5472 5470 5468 5467 5466 5465 5464 5462 5460 5458 5456 5454 5452 5450 5447
5508 5507 5505 5503 5502 5500 5499 5497 5495 5493 5490 5488 5486 5483 5481 5479 5476 5474 5472 5470 5468 5466 5464 5463 5461 5460 5459 5457 5456 5455 5454 5452 5450 5448 5446 5444 5442 5440
5497 5496 5494 5492 5490 5489 5487 5486 5484 5482 5479 5477 5475 5473 5471 5468 5466 5464 5462 5460 5458 5457 5455 5454 5452 5451 5451 5450 5448 5446 5445 5443 5442 5440 5438 5436 5434 5432
5486 5484 5483 5481 5480 5478 5477 5475 5473 5471 5469 5467 5465 5463 5460 5458 5456 5454 5453 5451 5450 5448 5447 5445 5444 5443 5442 5441 5440 5438 5437 5435 5434 5433 5431 5429 5427 5425
5476 5474 5473 5471 5469 5468 5466 5464 5462 5461 5459 5457 5455 5453 5450 5449 5447 5445 5444 5443 5441 5440 5439 5438 5436 5435 5433 5432 5431 5431 5429 5428 5426 5425 5424 5423 5421 5419
5466 5464 5463 5461 5460 5458 5456 5454 5452 5451 5449 5447 5445 5443 5441 5440 5438 5437 5436 5435 5433 5432 5431 5430 5428 5427 5426 5425 5424 5423 5423 5421 5420 5418 5417 5416 5414 5413
5456 5455 5453 5451 5450 5448 5446 5444 5442 5440 5439 5437 5435 5434 5432 5431 5430 5429 5428 5427 5426 5425 5424 5423 5422 5420 5419 5418 5417 5417 5416 5415 5414 5413 5412 5410 5409 5407